Skip Page Navigation
NASA JPL Caltech
NASA Logo - Jet Propulsion Laboratory + View the NASA Portal
+ Center for Near-Earth Object Studies
JPL Home Earth Solar System Stars & Galaxies Technology
JPL Solar System Dynamics
BODIES ORBITS EPHEMERIDES TOOLS PHYSICAL DATA DISCOVERY FAQ SITE MAP
IMPORTANT: The SSD Announcement email list is now available. Major changes are coming in the near future, including possible hostname and/or URL changes. To be notified of such changes, subscribe to this email list.

Please visit this page for more details.


JPL Small-Body Database Browser
Search: [ help ]  
233197 (2005 WX170)
Classification: Main-belt Asteroid          SPK-ID: 2233197
Ephemeris | Orbit Diagram | Orbital Elements | Mission Design | Physical Parameters | Discovery Circumstances | Close-Approach Data ]

[ show orbit diagram ]
Orbital Elements at Epoch 2458600.5 (2019-Apr-27.0) TDB
Reference: JPL 14 (heliocentric ecliptic J2000)
 Element Value Uncertainty (1-sigma)   Units 
e .08016442006168463 6.7785e-08  
a 2.316660352601456 1.4739e-08 au
q 2.130946618955262 1.543e-07 au
i 2.849425643912803 4.7789e-06 deg
node 257.5120785672923 0.00012105 deg
peri 104.4311072531591 0.00012833 deg
M 356.8136266205377 3.8958e-05 deg
tp 2458611.899508861299
(2019-May-08.39950886)
0.00013937 TDB
period 1287.929160003267
3.53
1.2291e-05
3.365e-08
d
yr
n .2795184791057038 2.6676e-09 deg/d
Q 2.50237408624765 1.5921e-08 au
  Orbit Determination Parameters
   # obs. used (total)      324  
   data-arc span      6644 days (18.19 yr)  
   first obs. used      2001-09-16  
   last obs. used      2019-11-25  
   planetary ephem.      DE431  
   SB-pert. ephem.      SB431-N16  
   condition code      0  
   norm. resid. RMS      .54919  
   source      ORB  
   producer      Otto Matic  
   solution date      2019-Dec-04 17:53:06  

Additional Information
 Earth MOID = 1.12916 au 
 Jupiter MOID = 2.81838 au 
 T_jup = 3.575 
[ show covariance matrix ]

Ephemeris | Orbit Diagram | Orbital Elements | Mission Design | Physical Parameters | Discovery Circumstances | Close-Approach Data ]

Physical Parameter Table
Parameter Symbol Value Units Sigma Reference Notes
absolute magnitude H 16.8   n/a MPO418245  

233197 (2005 WX170)          Discovered 2005-Nov-30 by Spacewatch at Kitt Peak
Reference: 20100228/Numbers.arcLast Updated: 2010-03-03

[ show close-approach data ]
Alternate Designations
 2005 WX170 = 2001 UM197 
Ephemeris | Orbit Diagram | Orbital Elements | Mission Design | Physical Parameters | Discovery Circumstances | Close-Approach Data ]
ABOUT SSD CREDITS/AWARDS PRIVACY/COPYRIGHT GLOSSARY LINKS
FirstGov 2019-Dec-12 06:26 UT
(server date/time)  
NASA Home Page
Site Manager:   Ryan S. Park
Webmaster  Alan B. Chamberlin